User: anonymous   Login
Location: Strawberry
(45.6646°N, 111.9596°W)
Time: 23:00:10
(UTC+00:00)
Language:

KKS-1 - Orbit

View from above orbital plane
View from above orbital plane
View from above satellite
View from above satellite

Ground track
Ground track

The orbit data is extracted from the following two-line orbital elements,

1 33499U 09002H   24051.59039993  .00002214  00000-0  31306-3 0  9993
2 33499  98.1508 311.8803 0009343 141.7812 218.4062 14.78133756810746
Epoch (UTC): 20 February 2024 14:10:10
Eccentricity: 0.0009343
inclination: 98.1508°
perigee height: 628 km
apogee height: 642 km
right ascension of ascending node: 311.8803°
argument of perigee: 141.7812°
revolutions per day: 14.78133756
mean anomaly at epoch: 218.4062°
orbit number at epoch: 81074

The dashed part of the orbit path shows where the satellite is in the earth's shadow,  

DLR